カタログに戻る

STARLINK-33695

運用中通信VLEO
NORAD 63478·PAYLOAD·🇺🇸 United States

打ち上げ Apr 6, 2025 から Cape Canaveral Space Force Station

Loading…

次のパス (今後24時間)

TLE

最新Source: CelesTrak SupGP

元期: Sep 15, 2026, 03:13 UTC

1 63478C 25070U   26258.13451389 -.00015675  00000+0 -56758-3 0  2586
2 63478  43.0024 266.1589 0001177 256.8681  69.4363 15.27596549    17

AllMySatでSTARLINK-33695をリアルタイム追跡

Download on the App Store